Regional Weather Roundup
Issued by NWS Bismarck, ND

Home | Current Version | Previous Version | Text Only | Print | Product List | Glossary On
Versions: 1 2 3 4 5 6 7 8 9 10 11 12 13 14 15 16 17 18 19 20 21 22 23 24 25 26 27 28 29 30 31 32 33 34 35 36 37 38 39 40 41 42 43 44 45 46 47 48 49 50
000
ASUS43 KBIS 211310
RWRBIS

NWR BROADCAST TEXT
NATIONAL WEATHER SERVICE BISMARCK ND
700 AM CST SUN DEC 21 2014

NOTE: "FAIR" INDICATES FEW OR NO CLOUDS BELOW 12,000 FEET WITH NO
SIGNIFICANT WEATHER AND/OR OBSTRUCTIONS TO VISIBILITY.


CITY           SKY/WX    TMP DP  RH WIND       PRES   REMARKS
WILLISTON      CLEAR     14  13  95 CALM      29.52F
MINOT          CLEAR     17  14  88 SE7       29.56F WCI   8
MINOT AFB      CLEAR     15  15  99 S7        29.56F WCI   5
BISMARCK       CLOUDY    19  17  92 NE5       29.63F WCI  12
DICKINSON      CLEAR     23  18  81 S8        29.51F WCI  14
GARRISON         N/A     19  16  88 E3        29.58F
HETTINGER ARPT CLEAR     22  18  85 CALM      29.56F
JAMESTOWN      MOCLDY    22  19  89 S8        29.66F FOG     WCI  12
BEACH          FAIR      25  25 100 S9        29.51F WCI  15
CARRINGTON     FAIR      16  16 100 MISG      29.65F
CROSBY         FAIR      18  18 100 S9        29.51F WCI   6
HARVEY         FAIR      16  16 100 SE3       29.61F
HAZEN          FAIR      18  16  93 E5        29.60F WCI  11
LINTON         FAIR      21  21 100 E6        29.63F WCI  14
MANDAN         CLOUDY    23  21  93 SE8       29.61F WCI  14
OAKES            N/A     28  28 100 S15       29.72F FOG     WCI  17
RUGBY          FAIR      14  14 100 SE6       29.60F WCI   5
STANLEY        FAIR      16  16 100 CALM      29.53F
TIOGA          FAIR      12  12 100 NE5       29.55F WCI   4
WATFORD CITY   FAIR      18  16  93 SE3       29.50F
$$

CITY           SKY/WX    TMP DP  RH WIND       PRES   REMARKS
GRAND FORKS    CLOUDY    30  28  92 S15       29.71F WCI  19
GRAND FORKS AF CLOUDY    29  29 100 S18       29.70F WCI  16
DEVILS LAKE    CLEAR     18  10  73 SE3       29.62F
FARGO          CLOUDY    32  28  85 S13       29.76F
CANDO          FAIR      14  14 100 SE7       29.63F WCI   4
CAVALIER       CLOUDY    28  28 100 S14       29.67F FOG     WCI  17
GWINNER        CLOUDY    32  32 100 MISG      29.74F
LANGDON        FAIR      23  19  86 N5        29.62F FOG     WCI  17
ROLLA          FOG       19  19 100 MISG      29.59F VSB 1/4
WALHALLA         N/A     28  28 100 S3        29.67S
$$

CITY           SKY/WX    TMP DP  RH WIND       PRES   REMARKS
ABERDEEN       CLOUDY    31  29  92 S10       29.73F FOG
MOBRIDGE       CLEAR     23  20  88 SE8       29.60F WCI  14
BUFFALO          N/A     26  20  77 S8        29.47F WCI  18
RAPID CITY     CLEAR     23  19  85 CALM      29.56F
GLASGOW        PTCLDY    22  18  85 E14       29.41F WCI   9
SIDNEY         CLEAR     18  16  93 CALM      29.52F
WOLF POINT     CLEAR     17  14  88 E5        29.47F WCI  10
GLENDIVE       CLEAR     21  19  93 SW6       29.50F WCI  14
MILES CITY     CLOUDY    27  23  85 SE10      29.46F WCI  17
BAKER          CLEAR     21  20  96 E7        29.52F WCI  12
$$

CITY           SKY/WX    TMP DP  RH WIND       PRES   REMARKS
BILLINGS       CLOUDY    39  23  52 SW8       29.45F
GREAT FALLS    MOCLDY    40  33  76 SW17G26   29.35S
REGINA         PTCLDY    14  12  92 SE10      29.48F WCI   1
ESTEVAN        CLEAR     12   9  85 E8        29.51F WCI   1
$$




USA.gov is the U.S. government's official web portal to all federal, state and local government web resources and services.